Location: Alpine
(43.1636°N, 111.0180°W)
Time: 04:26:44
(UTC+00:00)

Tiros 1 despin weight - Pass Details

Date: 27 May 2022
Orbit: 591 x 639 km, 48.2° (Epoch: 30 June)

Event Time Altitude Azimuth Distance (km) Brightness Sun altitude
Rises 01:35:53 0° 239° (WSW) 2,874 ? 11.8°
Reaches altitude 10° 01:38:12 10° 239° (WSW) 1,963 ? 11.4°
Maximum altitude 01:42:42 80° 153° (SSE) 619 ? 10.6°
Drops below altitude 10° 01:47:10 10° 67° (ENE) 1,941 ? 9.9°
Sets 01:49:26 0° 66° (ENE) 2,839 ? 9.5°
